Wind_Speed
6 5 6 13 11 12 9 6 7 8 8 6 12 7 19 27 26 27 29 31 33 33 32 30 27 29 28 28 30 29 25 18 17 23 27 27 26 22 18 19 13 9 11 23
6 5 13 8 1 6 10 3 5 2 5 7 7 11 17 24 30 35 33 30 34 34 34 34 32 29 28 28 28 26 22 19 20 17 20 28 30 26 22 21 19 16 14 18
5 10 9 5 6 8 5 5 4 5 3 4 3 3 16 18 29 28 30 32 31 36 36 37 35 31 29 29 29 27 23 21 22 19 15 26 29 26 27 26 24 21 19 16
5 8 5 4 4 5 5 4 3 5 4 3 4 4 8 18 19 21 23 27 25 28 35 37 34 32 30 29 28 27 25 23 23 21 21 20 31 31 26 30 27 24 23 22
6 5 6 8 1 2 4 2 4 3 3 4 1 2 7 15 11 5 20 23 18 20 22 21 31 32 31 29 29 27 24 23 22 26 25 23 25 31 27 25 29 27 27 26
7 1 3 2 2 3 2 4 7 6 4 3 4 6 5 9 8 10 21 32 34 31 23 10 17 26 32 31 30 28 26 23 22 25 27 28 27 30 32 29 31 31 28 28
4 2 1 4 4 8 9 7 4 4 4 6 3 4 5 7 16 23 22 25 32 27 27 29 27 15 20 27 30 31 30 27 24 24 28 30 29 30 34 32 32 34 30 31
3 3 1 1 3 3 3 6 5 2 1 5 5 5 4 4 20 20 20 24 24 24 17 36 24 16 17 13 23 25 24 29 31 30 32 30 31 34 34 33 31 36 37 37
4 1 3 4 2 4 3 3 5 4 1 4 3 4 15 13 15 23 24 24 21 15 13 16 26 17 21 4 6 13 17 19 26 35 39 37 36 37 41 36 34 35 38 37
1 4 3 2 4 4 5 2 4 4 2 4 3 4 7 5 10 16 23 28 28 29 26 21 18 14 13 9 8 10 3 15 16 21 24 37 43 44 44 45 40 37 41 38
3 4 5 4 3 5 4 4 5 5 3 4 3 3 2 2 1 7 16 26 32 33 30 27 23 18 15 6 5 9 12 11 13 15 20 23 37 49 48 49 50 43 42 42
2 5 1 5 8 2 4 3 5 5 3 4 6 1 6 9 18 23 26 31 28 24 21 19 16 12 7 2 5 12 15 15 17 16 19 30 26 35 46 51 53 51 47 44
3 3 3 8 8 7 6 5 4 4 3 1 6 3 4 14 19 22 25 25 25 26 21 13 10 9 6 6 8 11 14 18 17 19 20 18 20 21 36 46 48 52 52 48
6 4 6 5 4 3 4 6 4 5 4 3 3 7 1 6 7 17 20 20 22 23 19 14 10 9 9 10 14 18 20 21 22 21 22 21 18 20 19 37 44 43 47 50
5 3 3 4 2 4 4 7 7 1 4 5 6 7 2 4 7 14 17 18 21 21 17 16 14 13 13 14 15 20 24 29 29 27 25 25 24 21 23 24 28 45 45 45
5 2 4 7 7 7 3 7 8 5 13 16 12 7 2 13 20 20 19 18 18 17 17 19 18 18 19 20 21 22 24 26 33 36 33 32 32 28 24 25 26 26 35 47
4 4 3 4 6 6 5 6 9 10 9 8 4 4 4 7 13 10 13 16 19 23 29 31 32 31 30 28 28 29 30 32 34 39 39 38 38 38 33 29 26 29 32 31
5 4 3 3 3 0 4 3 16 18 11 10 9 6 10 9 8 6 14 22 26 29 32 31 29 30 29 28 30 31 29 31 34 38 41 40 39 39 40 35 32 29 30 32
8 4 3 3 2 3 3 4 1 2 3 3 7 7 6 13 10 5 22 27 27 30 31 34 33 35 36 30 28 25 29 30 30 34 40 37 38 38 40 41 37 34 33 32
7 7 5 2 2 4 4 4 5 6 1 6 11 9 15 18 6 5 28 33 38 34 33 36 39 35 31 29 30 31 31 31 33 37 41 41 41 43 45 43 42 38 36 35
3 3 5 3 3 3 2 1 2 2 4 6 8 7 8 4 1 14 22 25 27 31 35 35 33 34 31 33 32 31 32 36 37 41 44 46 44 44 46 46 44 39 35 33
6 6 4 2 3 5 3 3 2 9 11 9 5 5 6 5 8 13 18 20 23 28 31 31 32 32 28 32 36 36 36 36 38 42 45 45 44 44 46 47 43 36 32 29
2 6 5 5 5 2 5 12 17 16 14 8 2 0 2 6 10 12 16 22 21 23 25 25 28 31 27 27 28 31 33 38 42 44 45 45 45 46 45 41 34 29 24 27
5 3 4 4 2 6 11 14 14 10 6 4 2 3 6 9 9 8 10 15 19 22 27 24 22 33 30 27 21 21 26 30 32 37 41 44 43 41 36 27 23 23 25 27
4 3 3 2 3 4 8 14 13 11 7 6 4 4 4 5 5 6 10 13 15 20 25 28 31 31 37 31 21 25 33 33 28 29 35 38 36 29 22 20 21 24 22 21
4 5 4 5 9 7 7 14 15 13 8 5 6 2 1 4 6 7 9 13 17 18 23 23 27 26 34 27 23 31 32 29 33 27 25 24 22 18 16 20 21 22 21 20
Wind_Direction
340 39 263 268 224 231 179 231 183 209 192 148 200 196 180 183 187 184 191 194 199 197 189 188 184 191 193 192 194 196 197 203 208 209 210 206 204 209 219 223 225 219 200 197
358 291 266 250 186 68 32 93 188 156 151 165 192 217 191 182 195 189 188 192 194 194 189 186 189 192 194 195 199 201 209 213 219 224 225 214 211 212 219 225 229 225 219 210
176 249 308 72 44 48 29 61 4 168 160 252 55 321 182 201 197 195 193 191 193 191 187 187 190 196 199 201 202 208 217 224 225 228 233 219 213 218 215 218 228 227 227 222
238 279 193 56 54 98 50 291 83 52 70 213 96 262 209 199 197 189 180 180 191 187 191 188 189 196 204 210 211 218 226 232 235 229 231 227 224 225 223 225 228 233 231 234
270 29 53 63 42 88 181 286 322 139 88 340 161 73 272 186 187 137 129 147 165 159 160 171 192 201 208 215 217 223 230 237 243 237 237 237 235 232 225 224 231 236 241 244
216 146 97 139 315 355 151 44 29 40 76 7 260 134 290 183 151 120 120 123 119 121 134 185 210 208 210 213 218 221 230 239 246 242 239 236 233 230 232 234 242 244 241 241
345 7 48 82 31 8 61 49 357 18 9 226 51 59 266 118 124 132 125 126 132 149 192 186 202 208 216 210 213 218 224 234 251 254 247 244 242 232 226 234 241 243 240 238
114 2 351 25 121 182 91 133 142 176 217 269 359 16 344 68 109 123 134 139 145 167 186 210 204 188 169 169 212 225 233 240 238 249 253 250 249 240 236 235 234 241 241 243
89 96 16 81 55 108 314 38 186 124 351 68 8 16 34 46 60 76 98 126 148 149 165 164 199 220 209 182 245 270 248 251 248 250 254 254 252 248 242 241 235 235 236 244
132 80 313 253 50 8 112 200 37 11 52 73 322 55 126 46 93 94 94 102 105 102 99 100 119 111 130 115 78 50 292 252 279 262 253 253 252 253 250 246 244 239 236 237
89 93 285 16 6 193 12 17 52 110 95 137 100 353 336 270 207 113 106 110 116 117 121 123 124 125 131 131 50 349 337 325 284 251 270 278 261 254 251 250 249 246 242 241
339 124 131 244 312 88 112 117 109 107 307 45 102 332 359 71 58 70 65 70 77 81 103 108 110 112 112 88 326 324 330 338 322 317 289 285 295 257 252 254 252 251 247 244
344 22 31 351 353 7 51 2 61 110 87 159 111 160 33 68 63 68 66 58 53 46 55 66 77 65 40 4 348 338 332 332 332 324 323 314 296 273 252 258 259 255 254 251
80 86 132 161 212 233 341 339 50 97 81 115 84 153 205 50 59 58 56 46 39 37 49 69 55 29 8 342 330 326 321 321 322 326 322 317 310 283 278 250 257 260 262 259
95 110 118 174 333 2 308 319 318 343 175 117 198 118 132 88 77 58 43 37 39 46 38 27 9 351 335 325 315 304 308 315 315 316 321 318 310 304 283 277 264 251 258 262
22 4 51 356 10 23 336 323 316 359 89 105 117 100 60 57 49 43 41 31 26 13 356 346 339 333 329 326 318 310 303 296 302 309 310 315 315 306 299 285 278 262 258 257
83 104 73 303 344 1 25 316 81 64 44 140 105 138 112 62 51 73 33 12 354 341 333 327 320 314 306 302 297 298 301 297 294 298 302 306 308 306 302 296 286 273 268 271
115 94 101 213 30 260 221 41 98 91 66 71 82 77 58 29 27 92 13 351 338 330 324 320 318 314 309 298 286 283 282 289 287 289 294 298 302 302 300 297 290 287 282 271
110 110 75 120 178 270 330 21 63 114 85 97 111 94 55 5 358 328 337 338 334 327 320 314 311 307 305 304 301 294 283 277 274 280 286 292 296 295 299 294 295 284 283 281
64 96 113 100 132 232 207 302 1 63 126 41 79 57 31 14 20 293 326 323 317 316 316 312 308 307 305 304 293 288 287 285 283 283 287 291 293 295 296 292 294 290 280 282
81 39 155 178 221 279 240 173 67 102 214 110 71 55 32 68 345 309 319 325 328 328 325 320 316 314 304 303 303 297 290 286 287 286 285 287 290 292 292 290 290 288 281 280
161 155 194 114 172 259 301 82 165 165 155 146 108 76 39 12 339 346 356 353 350 347 345 340 329 326 321 304 303 304 302 298 292 288 287 287 289 288 288 288 286 280 277 277
70 174 179 160 207 138 87 130 144 168 165 166 150 133 31 16 29 29 34 26 27 14 8 359 357 346 335 323 313 310 306 302 296 290 287 288 288 287 285 283 279 280 276 274
330 147 107 103 318 148 141 146 168 185 209 185 172 109 80 59 57 40 7 2 348 338 331 347 355 1 340 336 326 331 325 325 313 298 298 298 293 286 278 268 261 269 266 277
211 72 111 53 244 186 199 193 192 184 171 171 151 139 78 64 36 26 9 356 349 346 340 334 323 326 343 338 331 345 345 335 329 305 293 290 291 282 267 247 261 261 263 273
195 178 144 216 199 208 226 196 203 211 205 195 196 159 33 26 28 29 4 5 6 358 350 341 351 352 355 353 0 359 351 345 353 341 305 290 285 268 250 256 260 263 265 272
Height
1502 1511 1518 1505 1503 1496 1502 1509 1511 1507 1503 1512 1515 1514 1514 1519 1525 1526 1530 1532 1536 1540 1544 1548 1550 1553 1557 1561 1564 1568 1571 1574 1577 1580 1582 1583 1584 1586 1588 1590 1591 1591 1591 1592
1512 1520 1499 1496 1492 1495 1498 1505 1511 1503 1502 1511 1513 1515 1510 1513 1515 1516 1521 1528 1531 1536 1541 1546 1549 1550 1553 1557 1561 1565 1569 1572 1575 1578 1580 1581 1584 1585 1587 1588 1589 1590 1591 1592
1518 1504 1496 1492 1496 1501 1511 1514 1512 1511 1503 1505 1507 1516 1511 1509 1512 1517 1521 1526 1531 1534 1539 1544 1549 1552 1554 1556 1560 1563 1566 1569 1573 1576 1578 1580 1582 1583 1584 1584 1586 1587 1589 1590
1507 1495 1495 1496 1500 1505 1520 1505 1506 1509 1518 1533 1507 1547 1519 1505 1506 1512 1519 1526 1533 1536 1540 1545 1550 1553 1555 1557 1559 1561 1563 1566 1569 1573 1575 1578 1580 1581 1582 1583 1584 1585 1586 1587
1510 1500 1501 1505 1504 1500 1512 1500 1502 1506 1520 1523 1519 1534 1512 1498 1510 1513 1518 1525 1532 1535 1542 1546 1547 1550 1554 1556 1557 1559 1562 1564 1566 1568 1570 1573 1576 1578 1580 1581 1582 1582 1583 1584
1502 1495 1498 1500 1498 1498 1498 1504 1513 1518 1530 1552 1523 1527 1528 1508 1506 1515 1519 1523 1528 1534 1539 1549 1550 1548 1550 1555 1557 1558 1559 1561 1563 1564 1565 1566 1569 1573 1576 1576 1576 1577 1578 1580
1506 1503 1498 1498 1505 1502 1505 1529 1558 1548 1558 1556 1521 1523 1525 1503 1505 1511 1521 1526 1528 1533 1537 1534 1545 1550 1554 1553 1555 1556 1556 1559 1563 1564 1565 1565 1565 1567 1568 1570 1571 1572 1572 1573
1529 1535 1504 1499 1505 1510 1511 1526 1556 1553 1562 1546 1518 1540 1532 1516 1514 1517 1520 1526 1529 1533 1534 1536 1543 1553 1554 1553 1553 1554 1555 1558 1558 1560 1562 1563 1563 1564 1564 1564 1564 1566 1567 1567
1528 1523 1502 1501 1501 1505 1513 1529 1519 1537 1541 1550 1547 1542 1527 1524 1524 1525 1527 1531 1535 1537 1540 1541 1547 1552 1554 1554 1553 1553 1554 1554 1552 1555 1559 1559 1559 1559 1559 1559 1560 1560 1560 1562
1513 1529 1512 1503 1503 1505 1510 1511 1537 1549 1557 1564 1557 1551 1556 1545 1539 1536 1537 1539 1540 1542 1542 1543 1544 1547 1549 1552 1554 1553 1551 1550 1551 1551 1551 1551 1550 1552 1553 1555 1555 1554 1555 1555
1510 1525 1524 1512 1515 1517 1520 1526 1531 1542 1553 1567 1576 1575 1553 1550 1544 1541 1541 1542 1542 1543 1547 1547 1548 1551 1552 1554 1553 1553 1552 1551 1549 1546 1543 1542 1539 1540 1544 1547 1548 1549 1549 1549
1514 1533 1541 1524 1515 1509 1512 1519 1534 1557 1553 1563 1566 1579 1555 1549 1546 1544 1546 1547 1549 1549 1549 1550 1551 1552 1552 1553 1553 1550 1548 1547 1545 1543 1540 1537 1532 1530 1533 1536 1538 1540 1541 1541
1516 1540 1557 1544 1531 1520 1527 1527 1526 1539 1549 1556 1574 1582 1559 1552 1549 1549 1548 1548 1548 1550 1550 1550 1551 1551 1550 1550 1549 1547 1546 1544 1542 1539 1536 1533 1530 1526 1527 1528 1528 1530 1532 1533
1514 1539 1549 1566 1546 1538 1537 1531 1529 1540 1557 1565 1568 1569 1564 1557 1553 1550 1549 1550 1549 1549 1550 1551 1551 1550 1549 1547 1545 1543 1542 1540 1538 1536 1532 1530 1526 1525 1521 1520 1519 1520 1520 1522
1520 1541 1535 1538 1534 1533 1532 1531 1529 1531 1536 1553 1564 1564 1560 1558 1556 1554 1552 1550 1548 1549 1550 1551 1551 1550 1548 1546 1544 1541 1538 1534 1531 1529 1527 1524 1521 1519 1516 1513 1511 1512 1512 1510
1524 1542 1535 1545 1535 1536 1536 1530 1528 1529 1540 1553 1557 1561 1556 1555 1553 1552 1553 1552 1551 1551 1549 1547 1547 1545 1543 1541 1539 1536 1534 1531 1527 1522 1521 1518 1515 1512 1509 1506 1504 1501 1501 1501
1531 1542 1552 1555 1542 1540 1551 1542 1538 1543 1543 1550 1560 1558 1557 1558 1557 1556 1555 1553 1552 1550 1547 1545 1542 1539 1537 1535 1531 1528 1526 1523 1520 1516 1513 1511 1508 1503 1501 1499 1495 1493 1491 1491
1534 1541 1551 1559 1551 1564 1549 1540 1538 1543 1550 1551 1554 1555 1556 1556 1556 1554 1552 1550 1548 1545 1540 1537 1534 1530 1528 1525 1522 1520 1517 1514 1511 1508 1504 1502 1499 1495 1491 1490 1488 1484 1482 1481
1522 1540 1554 1560 1565 1550 1544 1541 1540 1541 1557 1554 1556 1557 1556 1553 1550 1549 1546 1547 1545 1540 1535 1529 1526 1522 1518 1515 1510 1507 1505 1502 1500 1497 1493 1491 1489 1485 1482 1477 1477 1476 1473 1470
1528 1532 1547 1559 1558 1563 1547 1538 1536 1536 1559 1553 1551 1551 1549 1548 1553 1551 1545 1540 1534 1533 1531 1525 1518 1513 1508 1503 1501 1499 1496 1493 1489 1485 1481 1478 1476 1474 1471 1468 1465 1463 1462 1460
1541 1544 1550 1557 1558 1551 1538 1536 1536 1552 1560 1550 1547 1548 1548 1550 1553 1551 1546 1541 1536 1528 1520 1516 1511 1506 1501 1494 1490 1488 1484 1481 1478 1474 1469 1466 1464 1463 1460 1456 1454 1452 1451 1450
1538 1549 1552 1554 1553 1556 1535 1535 1541 1544 1545 1545 1546 1546 1545 1546 1546 1543 1540 1536 1531 1526 1518 1512 1506 1499 1493 1489 1483 1478 1473 1470 1465 1460 1456 1453 1452 1450 1447 1444 1442 1442 1441 1441
1536 1535 1543 1544 1545 1537 1535 1534 1536 1539 1540 1543 1543 1542 1541 1540 1539 1537 1535 1532 1528 1524 1518 1512 1505 1499 1493 1486 1479 1471 1466 1460 1454 1449 1443 1439 1438 1436 1434 1432 1431 1431 1432 1432
1528 1525 1533 1537 1538 1537 1536 1536 1535 1535 1535 1538 1539 1539 1538 1538 1535 1533 1531 1527 1524 1519 1513 1509 1504 1497 1489 1481 1474 1468 1461 1454 1446 1437 1432 1427 1424 1421 1420 1422 1424 1424 1425 1423
1528 1526 1532 1539 1536 1536 1534 1533 1533 1534 1535 1537 1538 1538 1537 1535 1532 1530 1526 1523 1519 1514 1509 1506 1500 1493 1486 1477 1470 1464 1455 1447 1437 1429 1422 1417 1413 1409 1410 1413 1415 1416 1416 1416
1523 1526 1533 1535 1527 1529 1530 1530 1530 1531 1532 1534 1536 1535 1534 1532 1530 1527 1524 1520 1515 1511 1507 1502 1497 1491 1482 1473 1467 1459 1451 1441 1430 1422 1414 1407 1403 1402 1405 1407 1408 1408 1409 1409